Location: Borderline Observatory
(42.7345°N, 72.8696°W)
Time: 18:51:58
(UTC-04:00)

Daily predictions for brighter satellites

Satellite Brightness Start Highest point End
(mag) Time Altitude Azimuth Time Altitude Azimuth Time Altitude Azimuth
Cosmos 2251 Rocket 4.4 20:05:04 10° NNW 20:10:19 55° WSW 20:15:31 10° S
Cosmos 2228 Rocket 3.6 20:08:09 10° SSE 20:12:11 37° E 20:16:15 10° NNE
Meteor 2-2 Rocket 4.4 20:06:23 10° S 20:12:15 86° E 20:18:17 10° N
BREEZE-M DEB (TANK) 3.7 20:10:49 10° W 20:14:02 33° NNW 20:16:06 10° NE
FREGAT/IRIS 4.4 20:13:08 10° SSW 20:15:51 33° W 20:18:34 10° NNW
Cosmos 2056 Rocket 4.4 20:11:53 10° SSE 20:16:25 28° E 20:20:57 10° NE
ATLAS 2AS CENTAUR R/B 3.1 20:14:10 10° NW 20:22:06 79° WSW 20:29:21 10° SSE
SL-16 R/B 3.2 20:17:50 10° SSE 20:22:21 25° ESE 20:26:52 10° NE
Cosmos 1408 3.1 20:20:03 10° N 20:23:31 39° ENE 20:27:01 10° SSE
Cosmos 1470 Rocket 3.7 20:19:12 10° N 20:23:34 57° E 20:27:56 10° SSE
NOSS 0 Rocket 3.9 20:20:21 10° SSW 20:26:31 82° ESE 20:32:45 10° NNE
Cosmos 1624 Rocket 4.4 20:27:54 10° S 20:32:42 40° ESE 20:37:32 10° NE
Cosmos 2098 Rocket 3.6 20:32:27 10° SSE 20:36:19 31° E 20:39:33 10° NNE
Resurs 01 Rocket 1.6 20:36:24 10° SSE 20:40:49 77° ENE 20:45:16 10° N
ERS-2 2.8 20:38:17 10° S 20:41:53 55° WSW 20:45:30 10° NNW
YAOGAN 6 2.7 20:38:43 10° S 20:42:19 77° W 20:46:01 10° NNW
SJ-11-01 4.3 20:37:49 10° SSE 20:42:26 69° ENE 20:47:07 10° N
Cosmos 1151 Rocket 2.9 20:38:43 10° S 20:42:57 81° E 20:47:16 10° N
Spot 2 Rocket 3.6 20:37:59 10° SSE 20:43:00 63° ENE 20:48:02 10° N
Cosmos 1727 Rocket 4.5 20:37:45 10° N 20:43:33 41° ENE 20:48:51 12° SE
Cosmos 405 4.0 20:40:49 10° NNE 20:43:53 28° ENE 20:45:47 17° ESE
Thor Agena Rocket 3.8 20:41:34 10° NNE 20:46:50 78° WNW 20:52:06 10° SSW
Cosmos 1980 3.9 20:41:19 10° SSW 20:47:00 78° WNW 20:52:43 10° NNE
Meteor 2-3 Rocket 4.3 20:43:33 10° NNW 20:49:04 59° W 20:54:37 10° S
SL-8 R/B 4.0 20:45:47 10° WSW 20:50:33 70° NNW 20:55:22 10° ENE
Cosmos 1933 Rocket 3.6 20:47:28 10° N 20:51:52 85° W 20:56:12 10° S
NOSS 3-4 (A) 4.0 20:45:51 10° NNW 20:52:49 64° NE 20:58:48 17° SE
NOSS 3-4 (C) 4.0 20:45:57 10° NNW 20:52:55 63° NE 20:58:53 17° SE
Cosmos 2369 Rocket 4.2 20:52:18 10° NNE 20:55:16 14° NE 20:58:13 10° ENE
Cosmos 2297 4.0 20:49:44 10° NNW 20:55:18 53° ENE 20:59:23 18° SE
Cosmos 1455 3.9 20:51:52 10° SW 20:55:27 36° WNW 20:59:03 10° N
Cosmos 2218 Rocket 4.0 20:56:09 10° S 21:02:30 81° E 21:08:56 10° N
Cosmos 1869 3.2 20:58:44 10° S 21:02:45 83° E 21:06:48 10° N
Cosmos 1441 Rocket 3.7 21:02:08 22° SE 21:03:54 35° E 21:07:22 10° NNE
Cosmos 2333 Rocket 3.9 20:59:43 10° SW 21:04:56 37° WNW 21:10:11 10° N
Cosmos 1707 Rocket 4.4 21:05:01 23° SE 21:06:29 29° E 21:10:13 10° NNE
Resurs 1-3 4.3 21:02:29 10° S 21:06:47 53° W 21:11:05 10° NNW
Cosmos 2219 Rocket 4.2 21:02:18 10° WSW 21:07:17 31° NW 21:12:17 10° N
Cosmos 1939 Rocket 4.1 21:06:03 10° SSW 21:09:38 38° W 21:13:18 10° NNW
Cosmos 2366 rocket 4.0 21:03:29 10° S 21:09:43 83° E 21:16:03 10° N
Cosmos 1933 4.5 21:09:54 24° E 21:10:18 24° E 21:13:37 10° NE
ATLAS CENTAUR R/B 4.0 21:08:08 10° W 21:10:58 20° NW 21:13:56 10° N
ERS-1 Rocket 3.8 21:09:54 23° ESE 21:12:12 34° ENE 21:16:42 10° N
ATLAS 5 CENTAUR R/B 4.0 21:08:42 10° NNW 21:13:06 22° NE 21:17:17 12° E
Cosmos 2237 Rocket 3.1 21:08:08 10° SW 21:13:36 52° WNW 21:19:07 10° NNE
Cosmos 1869 Rocket 3.7 21:10:40 10° N 21:14:56 51° ENE 21:16:54 28° SE
SL-8 Rocket 4.4 21:10:51 10° SSW 21:17:06 67° W 21:23:21 10° N
SL-08 RB Rocket 4.3 21:15:44 27° ESE 21:17:28 39° ENE 21:21:39 10° N
USA 186 4.2 21:18:19 10° WSW 21:19:10 11° W 21:20:03 10° WNW
CZ-4B DEB 4.4 21:18:29 27° S 21:20:15 86° WSW 21:23:46 10° NNW
Cosmos 407 Rocket 3.4 21:15:49 10° NNW 21:20:58 88° WSW 21:24:14 23° SSE
Cosmos 2278 Rocket 3.5 21:18:02 10° NW 21:23:13 37° WSW 21:28:22 10° S
Cosmos 1339 Rocket 4.5 21:17:22 10° N 21:23:31 87° W 21:28:57 14° S
CSL-04 DEB 4.5 21:28:56 32° SSE 21:30:55 78° ENE 21:35:19 10° N
Lacrosse 5 3.3 21:28:24 10° NNW 21:32:49 29° NNE 21:35:36 18° ENE
Cosmos 1825 4.2 21:32:52 10° NNW 21:36:05 27° W 21:39:18 10° SSW
SPOT 5 3.6 21:35:32 30° E 21:36:16 32° ENE 21:40:12 10° N
Cosmos 405 Rocket 2.6 21:35:29 30° S 21:37:21 87° E 21:41:19 10° N
SPOT 1/Viking Rocket 4.4 21:36:09 30° E 21:37:34 35° ENE 21:42:17 10° N
USA 81 4.0 21:33:46 10° N 21:39:04 85° W 21:42:18 24° S
Cosmos 1023 Rocket 4.4 21:38:06 10° NNW 21:43:16 77° ENE 21:45:04 41° SSE
Cosmos 676 Rocket 3.9 21:39:35 10° NNW 21:44:51 88° WSW 21:46:57 37° SSE
H-2A R/B 1.9 21:43:19 38° SSE 21:45:13 75° ENE 21:50:10 10° N
CZ-4C R/B 2.1 21:44:58 22° S 21:48:10 53° ESE 21:53:50 10° NE
Cosmos 1437 Rocket 3.6 21:45:14 10° N 21:48:33 36° ENE 21:48:33 36° ENE
MetOp-B 4.1 21:47:56 34° SSE 21:50:22 87° WSW 21:55:46 10° NNW
OE (NEXTSAT) 4.5 21:49:37 10° WNW 21:53:11 68° NNE 21:53:16 67° NNE
ARGOS 3.3 21:51:35 30° S 21:54:16 72° WSW 21:59:39 10° NNW
Cosmos 1862 3.9 21:51:44 10° NNW 21:55:40 53° W 21:56:57 36° SSW
Cosmos 1943 Rocket 3.4 21:52:37 10° N 21:57:15 26° NE 21:58:32 24° ENE
Cosmos 1934 Rocket 4.2 21:56:41 42° SE 21:57:59 48° E 22:03:47 10° NNE
Cosmos 1452 Rocket 3.4 21:55:08 20° SSW 21:58:48 87° ESE 22:04:05 10° NNE
Cosmos 2242 Rocket 4.2 22:02:42 41° ENE 22:02:42 41° ENE 22:06:12 10° NNE
Helios 1B rocket 3.3 22:02:03 10° NNE 22:04:56 37° NE 22:04:56 37° NE
SL-16 R/B 3.1 22:00:40 10° SW 22:06:07 48° WNW 22:11:37 10° NNE
RESURS DK-1 3.8 22:02:42 10° N 22:06:05 27° NE 22:06:05 27° NE
Cosmos 1140 Rocket 3.6 22:01:49 10° NNW 22:06:57 66° WSW 22:08:24 45° S
Gblst 52 Del rocket 3.9 22:09:43 10° SW 22:15:16 77° SE 22:20:48 10° ENE
Cosmos 1850 Rocket 3.9 22:10:55 10° NNW 22:16:06 69° ENE 22:16:35 64° ESE
Cosmos 921 Rocket 3.9 22:21:56 39° NE 22:21:56 39° NE 22:24:49 10° NNE
Cosmos 2344 3.6 22:13:54 10° SW 22:21:30 84° NW 22:29:59 10° NE
Landsat 7 3.8 22:21:41 69° ENE 22:21:41 69° ENE 22:26:26 10° N
Cosmos 1862 Rocket 3.9 22:23:56 54° NE 22:23:56 54° NE 22:27:29 10° NNE
Cosmos 1741 Rocket 3.9 22:20:25 10° NNW 22:25:47 80° ENE 22:26:10 75° ESE
Cosmos 1821 Rocket 4.2 22:26:23 31° SSW 22:29:34 70° W 22:35:51 10° N
Cosmos 1603 3.6 22:31:53 51° SSW 22:33:25 85° WNW 22:39:04 10° NNE
Cosmos 1943 3.5 22:34:58 50° ENE 22:34:58 50° ENE 22:39:34 10° NNE
Cosmos 1606 4.5 22:38:26 26° NNE 22:38:26 26° NNE 22:40:19 10° NNE
Helios 1A 3.8 22:37:13 45° W 22:37:13 45° W 22:41:05 10° NNW
Terra 2.0 22:40:06 62° NNE 22:40:06 62° NNE 22:44:18 10° N
Cosmos 2369 Rocket 2.1 22:34:36 10° NNW 22:40:19 75° ENE 22:40:32 74° E
Cosmos 1461 4.4 22:39:16 10° NNW 22:43:21 34° NE 22:43:21 34° NE
CZ-2C R/B 3.9 22:40:31 10° NNE 22:43:41 28° ENE 22:43:41 28° ENE
USA 267 3.2 22:40:07 10° NE 22:46:13 62° ESE 22:46:13 62° ESE
Cosmos 2123 Rocket 4.0 22:41:31 10° N 22:47:50 77° W 22:48:49 63° SSW
Cosmos 2263 4.3 22:42:39 10° NNW 22:48:08 63° ENE 22:48:08 63° ENE
ERS-1 Rocket 4.4 22:49:54 27° WSW 22:50:59 29° W 22:55:21 10° NW
ATLAS 5 CENTAUR R/B 2.3 22:52:36 10° NW 22:58:35 84° NE 22:58:49 82° E
Cosmos 1733 Rocket 4.4 22:57:01 10° NNW 23:00:32 35° WNW 23:00:32 35° WNW
GEOS 3 Rocket 4.0 23:01:31 10° NNE 23:06:48 61° NW 23:08:06 47° W
CZ-2C R/B 3.5 23:14:32 52° NNW 23:14:32 52° NNW 23:18:13 10° NNW
SPOT 5 4.5 23:14:46 24° W 23:14:46 24° W 23:18:01 10° NW
Lacrosse 5 2.7 23:11:08 10° NW 23:14:47 47° WNW 23:14:47 47° WNW
Cosmos 1605 Rocket 4.4 23:19:15 53° WSW 23:20:11 58° W 23:26:30 10° N
USA 234 3.9 23:18:28 38° ENE 23:20:25 49° NNE 23:26:39 10° NW
H-2A R/B 4.4 23:23:56 12° WSW 23:25:10 13° W 23:27:17 10° WNW
CZ-4C R/B 4.0 23:32:19 10° W 23:37:01 30° NW 23:42:23 10° NNE
SeaSat 1 4.3 23:39:14 22° NE 23:39:14 22° NE 23:42:45 10° N
Cosmos 1459 Rocket 4.2 23:40:21 64° NNE 23:40:21 64° NNE 23:45:30 10° N
Cosmos 1943 Rocket 3.1 23:35:55 10° NW 23:40:03 42° WNW 23:40:03 42° WNW
Cosmos 1656 Rocket 4.2 23:37:29 10° NNW 23:42:01 56° N 23:42:01 56° N
BREEZE-M DEB (TANK) 4.5 23:26:17 10° WNW 23:44:17 50° SW 23:44:20 50° SW
